GFSCGP_700_spd_159.txt.gz
Wind_Speed
16 13 14 10 6 7 10 12 12 3 1 5 5 6 7 8 10 17 18 21 18 16 14 12 12 8 7 9 9 12 10 9 9 6 6 4 5 7 12 14 10 14 12 12
18 19 14 13 13 12 11 13 8 2 3 3 4 7 3 3 3 9 12 23 21 20 18 15 14 7 8 10 11 10 14 11 11 9 9 7 6 6 9 12 11 14 12 11
16 6 19 19 16 14 12 12 5 3 1 2 7 5 4 5 4 2 8 21 21 22 19 17 11 10 12 9 10 10 13 13 12 13 10 6 7 6 7 11 11 14 16 12
8 12 10 17 18 15 14 12 7 3 1 1 5 4 4 4 9 5 11 14 18 20 21 17 12 8 10 11 13 13 12 13 14 14 10 10 9 7 8 11 9 14 17 14
3 7 15 16 14 15 12 6 4 6 2 7 6 3 3 5 6 10 10 8 13 21 21 19 14 9 8 14 14 14 13 14 15 15 13 10 10 9 10 12 10 13 12 14
5 5 7 8 5 6 7 4 6 6 4 4 5 2 2 2 6 1 8 11 9 16 23 18 17 13 13 14 15 15 15 14 15 17 17 14 12 11 11 10 12 12 12 13
5 7 9 7 6 6 10 5 3 3 3 4 5 3 4 6 4 9 12 13 16 16 18 19 20 16 15 14 13 11 15 13 13 16 17 17 15 13 13 13 14 14 13 15
7 6 10 10 9 6 11 8 5 5 4 1 2 4 4 7 4 8 5 5 12 15 14 15 15 18 17 15 16 15 13 13 15 15 15 17 17 14 14 13 14 16 16 16
5 3 7 7 9 9 10 9 10 3 3 2 3 8 10 5 7 5 3 4 6 10 14 17 19 17 22 17 16 16 14 13 13 13 15 14 16 16 14 13 12 17 16 16
5 6 6 4 6 9 8 10 6 5 3 4 2 5 6 9 5 7 6 7 6 5 7 12 19 25 23 18 19 16 16 13 12 11 11 14 15 16 18 17 15 16 17 16
7 3 1 6 6 11 8 10 9 5 3 3 3 4 6 2 5 6 8 3 4 6 9 13 21 28 28 25 23 22 21 16 15 14 12 13 16 16 19 21 19 17 18 17
11 6 5 5 5 7 11 11 12 10 6 7 3 6 5 3 5 4 1 2 2 5 3 11 21 31 32 30 24 25 23 22 19 18 17 14 15 18 20 23 23 21 21 20
14 8 6 5 5 7 8 12 13 14 11 11 8 5 7 4 3 4 4 3 3 6 6 5 9 23 32 30 25 23 21 22 21 22 19 18 17 19 20 22 25 25 23 21
16 12 11 8 7 9 13 12 14 13 11 11 14 9 8 8 7 7 6 4 2 4 6 4 3 9 28 31 27 26 23 22 23 22 25 22 27 22 22 22 24 25 25 25
16 15 13 14 13 10 11 8 7 8 10 10 11 16 11 11 12 12 10 7 5 6 6 4 3 7 15 24 23 23 19 22 20 24 23 24 22 24 23 24 25 24 25 25
19 13 13 13 11 9 8 9 10 11 11 10 11 13 11 16 17 14 11 12 12 13 12 10 9 10 12 18 23 24 26 28 26 28 28 21 29 26 24 25 26 26 26 28
22 16 15 8 14 10 9 13 15 17 18 17 16 13 11 13 15 15 15 15 16 14 11 10 10 11 18 24 27 28 29 27 27 27 32 33 30 33 30 30 30 28 28 28
22 18 18 8 13 7 9 8 10 10 10 14 16 13 12 12 14 15 17 17 15 13 14 15 15 14 14 20 27 32 29 28 28 30 31 33 39 36 33 34 34 33 31 31
24 21 14 8 16 6 10 11 12 10 10 9 9 8 9 11 14 16 18 19 19 19 20 19 17 17 16 19 18 25 26 28 30 31 31 35 39 42 38 36 36 35 34 32
27 24 19 14 7 7 7 9 11 12 14 13 9 8 10 12 14 17 18 20 22 25 27 26 26 26 23 21 21 17 24 27 30 28 30 29 36 46 43 38 39 37 34 32
29 26 23 19 11 9 10 9 8 13 9 12 9 9 9 11 14 17 20 19 19 20 21 23 22 21 20 19 22 20 16 17 24 28 30 28 31 40 44 40 40 38 36 32
33 27 22 25 15 12 13 14 13 6 7 9 9 9 11 13 14 14 18 20 22 23 19 18 17 18 18 18 19 21 18 13 18 23 25 22 26 33 38 40 41 40 39 37
28 25 26 20 21 12 8 5 7 8 10 9 9 10 12 12 15 20 24 25 26 25 20 16 15 18 20 18 18 20 18 15 12 13 7 15 19 28 36 37 38 41 41 46
27 24 21 17 17 15 14 12 11 11 10 11 8 11 12 15 20 23 19 20 18 18 16 14 15 16 17 18 18 18 18 15 12 10 6 9 8 7 13 24 34 36 33 43
17 18 17 19 19 15 15 14 12 14 13 12 12 12 13 15 20 17 17 19 18 17 16 15 16 18 18 17 17 18 19 16 16 13 12 11 12 15 19 23 24 26 29 30
19 21 21 24 21 19 15 12 12 15 13 13 13 13 14 18 18 18 20 21 20 19 20 19 17 17 18 17 15 17 19 18 19 15 15 12 13 16 13 13 16 4 19 18

GFSCGP_700_spd_162.txt.gz
Wind_Speed
14 12 13 9 6 2 4 6 5 1 3 3 3 2 4 8 8 14 20 19 18 18 14 12 10 8 11 10 12 11 12 13 13 11 11 9 8 11 12 12 12 13 13 11
12 15 11 10 9 8 5 4 4 3 1 2 3 4 4 4 8 13 17 20 19 18 18 17 14 9 8 11 11 13 12 13 11 11 12 11 9 8 12 13 11 14 12 12
14 6 15 15 12 9 5 2 1 3 3 1 4 3 2 5 6 14 18 18 25 21 18 18 18 13 10 8 11 11 14 13 13 11 9 8 9 8 9 13 11 14 12 12
13 13 11 14 15 10 8 2 2 3 4 4 3 0 3 6 9 5 12 22 26 25 22 18 16 12 14 10 11 12 15 16 15 13 10 9 10 6 8 10 10 14 15 12
6 9 12 14 11 9 5 4 5 3 3 4 2 7 4 1 6 12 9 13 18 20 22 20 18 12 13 15 13 13 14 15 15 14 12 12 10 9 10 9 9 11 15 13
7 7 11 9 7 6 6 6 5 5 5 14 4 7 8 1 2 1 10 12 19 21 21 23 19 16 15 16 15 15 15 14 15 16 15 13 12 11 12 10 8 7 12 11
9 8 8 10 8 7 9 11 12 10 9 2 4 7 5 3 4 5 4 12 15 18 24 23 23 20 18 17 14 15 14 14 14 15 18 16 13 13 13 11 9 9 9 11
14 14 13 13 9 6 8 15 15 3 5 1 2 4 4 5 5 7 6 1 20 18 21 28 27 23 19 18 15 14 11 14 15 15 16 18 17 15 15 15 13 13 13 14
11 5 13 12 11 7 8 11 6 7 6 9 2 2 5 2 3 3 3 4 2 13 19 20 25 26 23 20 18 15 13 12 14 15 16 17 19 18 16 16 14 15 16 15
7 7 10 10 9 10 8 5 9 11 3 5 5 4 3 3 0 2 3 3 7 8 11 16 24 26 26 24 23 21 17 14 14 15 15 16 18 20 19 19 17 16 19 17
10 9 11 8 11 9 10 9 8 8 6 8 4 4 2 2 0 2 5 3 4 6 9 13 16 24 30 30 28 24 20 18 17 16 14 14 17 18 20 21 19 19 19 20
14 11 11 8 9 11 11 11 8 12 11 9 11 9 4 3 2 0 2 1 2 2 3 6 15 22 27 31 31 27 24 21 17 16 15 14 15 17 18 20 22 22 20 20
16 12 10 10 7 8 9 10 14 13 13 13 12 3 2 5 4 4 5 5 4 5 3 7 9 14 26 31 32 27 28 24 23 23 21 19 17 15 16 18 21 25 24 22
16 13 13 5 1 0 7 12 15 18 19 13 13 11 2 7 10 8 8 7 4 4 6 6 9 10 14 28 35 30 28 28 26 26 24 20 19 16 15 18 21 23 25 24
19 18 14 10 7 10 12 12 14 17 17 14 9 8 10 7 10 13 14 10 6 6 6 6 7 10 10 20 33 31 28 26 25 27 28 24 23 25 25 23 22 23 26 26
24 15 13 12 9 10 11 12 13 14 15 15 16 15 15 18 16 16 17 13 11 11 12 10 8 7 6 13 25 30 25 24 26 26 22 25 27 22 22 22 24 24 25 26
21 17 14 17 11 9 13 16 15 17 18 18 20 15 16 16 16 16 18 15 14 14 13 11 7 7 9 13 13 20 25 26 28 30 29 30 30 27 26 25 27 27 26 27
21 19 16 14 10 13 9 9 10 13 16 16 18 17 14 17 15 14 14 13 14 14 12 11 13 14 14 15 18 24 29 30 29 28 26 26 28 29 30 34 36 34 32 30
20 20 16 14 18 10 9 13 11 11 10 12 10 12 16 13 11 12 13 14 16 16 17 19 20 21 20 18 18 21 25 30 33 31 27 26 27 29 31 34 40 38 37 36
21 21 21 16 17 14 13 10 9 8 15 14 13 11 10 9 9 12 18 18 20 22 24 25 27 28 29 27 26 24 25 24 30 29 27 28 30 31 33 34 41 43 41 40
26 24 26 21 17 15 11 9 9 11 2 8 14 13 12 10 14 16 19 19 23 25 24 24 24 26 25 25 24 24 25 25 22 27 31 32 31 32 33 32 38 45 43 39
31 25 25 26 21 19 13 13 16 8 8 7 12 13 11 15 16 17 20 21 22 25 26 26 24 23 21 21 20 20 23 26 24 21 26 27 28 29 29 29 32 41 43 39
30 28 25 23 24 14 14 9 9 9 7 8 10 12 11 13 16 15 19 21 21 20 22 25 23 19 18 19 19 18 22 24 26 22 23 22 21 22 22 26 29 33 42 42
31 29 22 21 23 18 15 14 12 8 8 9 10 12 11 14 13 15 20 19 18 19 17 17 17 18 18 20 19 19 18 22 25 22 20 18 17 17 21 24 28 30 36 39
20 29 22 21 18 15 16 15 13 12 12 15 13 12 12 13 15 17 20 19 19 20 19 18 17 18 20 21 19 19 18 20 25 22 20 17 13 12 13 13 17 25 31 35
17 18 23 18 17 12 13 11 14 14 14 18 16 14 14 15 16 20 19 21 23 23 22 19 19 20 20 20 21 20 18 20 23 23 23 17 15 15 18 20 23 25 23 25

GFSCGP_700_spd_165.txt.gz
Wind_Speed
13 12 15 12 5 5 6 5 5 4 5 6 5 5 8 11 14 21 18 21 21 14 19 13 13 11 12 11 8 9 13 14 12 11 10 9 12 11 12 12 12 12 12 11
11 15 14 7 7 4 5 1 2 6 5 3 4 5 9 13 12 18 21 20 21 18 11 11 10 12 12 11 9 10 13 13 12 11 13 11 9 12 13 14 13 14 13 11
15 8 12 10 9 8 8 4 3 3 6 3 5 2 8 11 11 23 21 21 18 21 21 16 15 14 11 13 10 13 13 15 12 11 12 11 12 10 12 13 13 15 14 14
15 14 9 12 14 12 2 1 4 6 8 8 7 3 17 11 12 14 18 18 25 18 24 24 15 15 13 14 10 12 15 15 14 13 12 12 11 8 8 13 13 13 15 14
13 12 14 12 14 13 0 3 6 6 11 12 11 11 6 11 10 11 16 19 25 26 21 18 17 18 16 17 13 9 10 16 14 13 11 12 11 10 5 10 9 14 17 14
9 9 12 12 10 9 7 5 8 10 11 13 1 9 10 8 7 4 12 12 20 24 25 21 18 22 14 14 16 14 10 11 14 15 14 13 12 10 13 13 11 9 13 16
10 10 11 11 11 9 10 16 7 8 6 10 10 8 7 2 2 4 5 12 15 17 17 18 19 19 15 16 14 18 12 11 12 15 15 14 14 14 12 12 11 7 7 10
15 16 15 13 16 8 10 18 16 7 8 8 3 0 7 1 1 2 2 9 14 19 21 20 22 21 21 18 18 19 16 12 12 12 15 18 15 14 14 15 14 13 9 4
12 11 14 13 10 9 7 10 13 12 8 6 5 5 4 3 3 2 2 1 9 16 15 24 21 22 21 20 20 19 20 12 12 11 13 16 18 17 16 14 15 14 20 16
5 11 13 13 12 13 13 9 9 9 2 10 3 5 13 8 3 1 2 4 4 8 18 16 19 22 23 22 20 20 21 15 11 13 13 15 16 18 18 16 18 14 13 16
14 14 10 12 16 18 9 11 9 14 10 4 3 9 5 7 7 2 3 6 4 4 6 13 16 24 26 24 22 22 22 19 17 15 13 14 16 15 17 19 19 19 19 20
21 12 17 16 14 12 10 10 11 10 9 8 11 9 6 9 9 7 6 6 4 5 2 3 7 13 21 29 32 25 25 22 20 18 16 15 15 15 16 17 19 21 21 20
19 17 16 16 14 15 17 16 15 13 15 10 13 10 3 5 9 7 4 3 1 6 4 2 3 4 14 21 32 32 29 23 22 23 20 18 16 15 14 15 17 19 20 21
18 21 18 4 9 6 11 11 9 14 17 12 12 13 10 8 8 6 6 5 3 2 3 4 5 5 6 11 24 33 30 28 23 24 24 23 19 18 15 14 15 16 18 20
22 23 15 11 11 7 8 9 10 14 18 21 2 7 0 8 6 7 7 7 7 6 3 6 8 9 9 10 19 27 34 29 27 28 27 24 22 21 20 19 16 18 20 20
22 24 18 18 12 11 13 13 15 14 14 17 15 13 8 7 9 8 10 10 9 8 6 10 11 11 10 11 7 20 32 35 30 30 29 27 26 25 26 25 25 24 23 21
26 24 20 21 17 13 15 16 16 14 14 13 15 11 7 10 13 18 14 11 11 10 9 9 11 9 10 11 9 7 26 31 32 25 27 29 28 26 26 29 25 23 25 23
26 23 23 20 16 13 17 9 7 10 12 14 15 16 10 9 9 10 13 11 11 11 11 10 11 12 13 14 14 12 16 16 31 25 24 29 31 30 28 29 29 28 27 27
24 24 25 21 23 17 12 11 13 12 13 12 15 13 12 10 9 9 10 9 9 9 12 14 15 17 20 20 20 19 17 19 23 27 29 28 28 30 28 26 25 25 30 33
26 22 24 18 18 17 18 11 11 9 15 13 11 10 12 10 9 14 12 10 10 15 19 18 21 24 24 25 24 26 26 25 23 25 27 31 33 33 30 29 28 27 30 32
28 27 27 27 17 18 13 9 8 9 1 5 10 11 11 9 6 9 7 10 15 18 22 24 24 23 25 25 26 24 24 26 27 28 28 29 32 33 33 33 33 32 33 34
34 31 31 26 24 19 10 13 13 6 3 6 9 12 12 14 7 7 7 8 12 18 19 19 23 21 21 24 23 22 19 21 24 26 28 26 28 34 37 35 33 36 35 35
35 37 32 26 27 21 13 17 13 13 9 8 9 11 13 11 9 8 8 10 16 15 16 16 17 19 18 20 19 19 18 20 21 23 26 28 25 26 29 31 35 33 30 30
34 29 33 26 22 11 17 14 11 12 10 8 9 10 12 12 10 9 8 9 14 16 17 18 17 17 16 18 21 16 17 18 19 21 24 29 25 24 27 30 24 23 25 26
27 27 26 25 16 17 16 15 15 14 13 10 11 11 11 10 10 9 8 11 15 20 22 22 21 21 21 21 20 19 18 18 19 21 25 27 24 24 20 16 16 20 24 27
14 20 27 24 23 21 15 15 16 16 15 12 12 12 11 11 10 11 13 17 22 23 24 23 21 20 21 20 21 20 19 21 20 22 22 23 23 22 18 16 18 22 24 21

GFSCGP_700_spd_168.txt.gz
Wind_Speed
12 12 15 9 8 4 8 5 13 4 11 13 8 1 6 21 20 18 26 25 20 19 19 9 15 10 10 10 12 14 16 9 8 11 14 10 9 10 12 13 13 14 13 11
15 15 14 2 8 8 13 10 7 6 6 13 7 13 14 3 13 21 21 26 23 19 15 22 19 11 11 11 10 8 10 12 12 10 15 13 9 10 12 13 14 13 13 12
17 12 10 11 9 10 9 6 1 5 10 7 6 4 8 9 10 15 22 19 21 31 28 17 22 14 12 12 6 10 10 11 11 11 17 7 13 9 13 13 13 14 13 13
16 14 7 13 13 11 14 3 3 7 9 8 10 6 15 12 19 17 26 29 23 21 26 25 29 14 21 10 8 10 12 11 10 10 11 12 10 10 11 11 14 13 14 13
15 13 16 12 12 12 7 4 9 6 11 10 13 11 10 9 17 22 19 24 24 22 22 15 23 27 15 14 12 11 11 12 10 11 10 12 14 12 14 11 15 13 17 12
17 8 11 14 11 12 12 6 7 10 14 16 12 6 6 16 12 31 20 19 12 23 21 16 19 22 35 18 19 9 10 10 12 12 11 11 12 8 12 15 14 14 16 14
13 13 12 13 13 9 12 14 2 6 6 9 8 7 7 5 7 10 20 16 11 7 22 24 27 17 14 17 12 13 10 10 11 11 13 13 12 12 11 14 13 11 13 15
17 17 14 14 17 10 12 16 12 3 6 7 17 5 10 8 8 5 9 11 15 14 17 18 12 9 17 7 18 17 8 12 11 11 13 14 14 13 11 12 16 12 17 11
17 15 16 13 14 13 7 13 11 18 22 16 17 9 11 7 7 4 5 10 7 13 8 12 15 21 14 21 23 20 14 15 14 13 14 14 15 14 11 13 15 15 13 18
17 12 12 15 12 13 14 11 11 13 4 1 6 5 12 9 6 3 6 11 11 13 13 10 12 17 21 21 21 23 16 16 14 15 15 15 14 15 14 13 13 18 19 22
15 9 11 14 15 16 12 14 13 15 5 7 4 4 8 10 6 5 1 10 19 7 10 11 12 19 24 24 18 23 26 22 18 17 17 14 14 14 15 15 14 16 18 19
19 16 17 18 15 13 19 14 10 12 7 11 20 13 11 11 9 10 11 9 9 9 5 10 18 19 25 24 27 30 33 28 17 19 17 19 16 14 13 13 16 17 18 15
16 23 17 11 15 17 13 14 13 12 10 9 14 14 8 10 11 9 11 6 5 4 5 6 5 5 13 21 28 20 21 32 20 20 19 19 17 14 13 12 13 14 17 17
15 21 20 11 7 8 16 14 16 17 16 9 10 9 16 13 14 12 9 6 6 6 4 3 5 3 5 9 13 22 39 17 30 17 24 21 17 15 13 11 11 11 12 14
16 22 20 13 11 18 6 11 8 10 14 15 4 10 7 13 10 13 11 10 9 6 6 4 6 5 8 9 12 14 24 40 25 32 32 27 16 17 16 15 13 12 14 14
20 25 21 19 11 11 15 11 10 11 13 14 11 2 13 13 15 13 11 9 8 8 8 8 7 8 9 10 12 12 13 28 38 42 34 34 21 17 19 19 18 18 20 20
24 23 22 25 19 18 28 15 14 14 12 10 10 6 9 9 10 9 15 10 10 11 10 9 10 10 10 12 15 15 13 12 29 35 35 25 17 22 22 22 22 20 19 18
27 27 27 24 19 9 16 10 7 2 6 9 11 8 5 6 8 7 10 10 11 15 11 11 7 11 10 16 17 18 16 16 15 20 29 24 25 23 23 21 20 21 23 24
22 23 28 26 21 18 16 14 11 13 13 12 13 12 7 7 7 7 7 9 12 14 16 11 12 13 14 17 22 23 20 19 19 15 15 28 27 22 24 23 23 21 23 24
16 16 23 17 18 15 17 9 16 10 12 12 13 11 11 10 9 12 14 11 10 9 8 9 13 20 22 22 24 25 24 22 22 23 20 18 31 29 28 27 27 26 25 26
26 26 24 26 19 19 13 12 9 9 4 4 11 10 11 8 11 18 14 11 10 8 11 14 21 21 22 24 26 26 24 23 23 24 25 24 26 26 27 30 31 31 30 31
36 30 25 19 32 16 9 11 15 7 5 7 7 8 14 15 11 11 6 6 6 9 12 17 19 21 22 20 25 27 24 19 19 20 20 22 25 28 26 26 30 35 36 36
31 26 27 31 21 23 23 12 17 11 7 6 9 12 10 11 10 9 8 10 8 11 15 18 16 17 24 24 24 22 21 15 16 18 19 21 24 26 26 24 25 30 34 36
26 33 35 25 25 15 14 14 16 13 13 10 11 12 14 10 8 10 10 8 11 16 19 20 18 17 17 23 22 20 12 16 17 18 18 20 22 24 25 24 24 25 28 32
17 26 39 46 33 18 4 21 18 13 15 10 9 12 12 12 12 13 14 14 16 19 23 23 21 20 20 22 25 20 15 17 19 19 18 20 22 24 23 24 22 21 19 20
19 22 29 50 30 33 31 19 15 16 15 14 12 12 15 11 13 16 17 19 19 21 23 21 21 19 20 20 20 17 19 17 18 20 20 20 22 23 22 22 20 20 19 21